Tracking 31027 objects as of 19-Jul-2025
HD Live streaming from Space Station
objects crossing your sky now

TIANHUI 1-04

Track TIANHUI 1-04 now!
10-day predictions


NORAD ID: 49049
Int'l Code: 2021-067A
Perigee: 502.1 km
Apogee: 503.4 km
Inclination: 97.3 °
Period: 94.5 minutes
Semi major axis: 6873 km
RCS: Unknown
Launch date: July 29, 2021
Source: People's Republic of China (PRC)
Launch site: Jiuquan Satellite Launch Center, China (JSC)
Your satellite tracking list
FREGAT DEB
Track 1 satellite(s)




NASA's NSSDC Master Catalog

Two Line Element Set (TLE):
1 49049U 21067A   25199.92246459  .00004708  00000-0  20074-3 0  9994
2 49049  97.3196 272.1837 0000926 108.4804 251.6534 15.23403488220856
Source of the keplerian elements: AFSPC